STARLINK-33809, 63508

Orbit data source: Space-Track

STARLINK-33809, 63508 is a payload satellite owned by SpaceX/Seattle (US) in LEO that was launched on Mon, 07 Apr 2025 UTC via an FALCON 9 launch vehicle from the Air Force Western Test Range (AFWTR). Payload-class satellites include a variety of spacecraft equipped with specific instruments for various scientific and technological missions. These include communications satellites like Starlink; space stations such as the ISS; scientific satellites like the Hubble; Earth observation satellites from companies like Planet Labs, Umbra, and HawkEye 360; GPS; miniature CubeSats for education and research; and military/defense satellites.

Loading next visibility...
Identifier
63508, 2025-071R
Orbit
LEO
Last TLE update
4 hours ago
Origin
Manufacturer
SpaceX/Seattle
Mission
Operational Commercial Communications
Bus & Motor
STARLINK V2MO, Unknown motor
Mass
575 kg wet, ~530 kg dry
Launch date (UTC)
2025-04-07 (3 months ago)
Launch vehicle
FALCON 9
Launch site
Air Force Western Test Range (AFWTR)
Object type
Payload
Rocket body
Debris
Shape & HBR
Box + 1 Pan, 29 m
Radar Cross Section
41.120 m², Large (>1 m²)

Expand to show TLE details & history

TLE from 4 hours ago
0 STARLINK-33809
1 63508U 25071R   25190.14419762  .00013654  00000-0  47225-3 0  9990
2 63508  53.1572 191.0136 0001122  82.7114 277.4015 15.30202030 15421
Epoch: 2025-07-09T03:27Z
TLE epoch observation values (Epoch: 2025-07-09T03:27:38.674Z)
Latitude
0.00005°
Longitude
-148.22656°
Altitude
476.009 km
Speed
7.629 km/s
True Right ascension
12h 44m 03s
True Declination
0° 00' 00"
Sunlit
Object was in daylight at epoch
Visualization orbit readout
Latitude
-52.29882°
Longitude
105.53566°
Altitude
494.115 km
Speed
7.617 km/s
Apparent Right ascension
06h 51m 26s
Apparent Declination
-47° 23' 36"
Sunlit
Object is in daylight
Visualization observer readout
Local Sidereal Time
19:53:20
Azimuth
128.924° SE
Elevation
-76.574°
Doppler factor
1
Orbital elements
Apogee altitude
476.235 km
Perigee altitude
474.697 km
Semi-major axis
6,853.603 km
Eccentricity
0.00011
Inclination
53.1572°
RAAN
191.0136°
Arg. of periapsis
82.7114°
True anomaly
Unknown
Mean anomaly
277.4015°
Eccentric anomaly
Unknown
Mean motion
3.82529 °/min
Orbital period
94.11 mins
BSTAR
0.00047225
Loading maneuver chart data...
Loading SW <> Apogee altitude chart data...
Loading historical data...
Loading historical data...
Loading historical data...
Loading historical data...
Loading historical data...
Loading historical data...
Loading historical data...

STARLINK-33809 Visibility forecast

Observer location: undefined°, undefined°

Span
Click to sort rows by Start time (UTC) header in descending order
Start Az.
Max El. time (UTC)
Max El. Az.
Max El.
End time (UTC)
End Az.
5 mins2025-07-09 08:36:48.082Z331.947° NNW2025-07-09 08:39:48.082Z29.107° NE22.124°2025-07-09 08:41:48.082Z72.025° E
5 mins2025-07-09 10:15:48.082Z292.44° WNW2025-07-09 10:17:48.082Z225.784° WSW38.451°2025-07-09 10:20:48.082Z149.802° SSE
6 mins2025-07-10 03:10:48.082Z250.902° W2025-07-10 03:13:48.082Z355.765° N36.745°2025-07-10 03:16:48.082Z41.849° NE
|